Regional Weather Roundup
Issued by NWS

Home | Current Version | Previous Version | Graphics & Text | Print | Product List | Glossary Off
Versions: 1 2 3 4 5 6 7 8 9 10 11 12 13 14 15 16 17 18 19 20 21 22 23 24 25 26 27

000
ASUS45 KBOI 211310
RWRID
WEATHER ROUNDUP FOR IDAHO
NATIONAL WEATHER SERVICE BOISE ID
700 AM MDT MON APR 21 2014

NOTE: "FAIR" INDICATES FEW OR NO CLOUDS BELOW 12000 FEET
WITH NO SIGNIFICANT WEATHER AND/OR OBSTRUCTIONS TO VISIBILITY

IDZ012-014-211400-
SOUTHWEST IDAHO


CITY           SKY/WX    TMP DP  RH WIND       PRES   REMARKS
BOISE          CLEAR     44  27  51 SE8       30.12F
CALDWELL       CLEAR     36  21  55 CALM      30.15F
MOUNTAIN HOME  CLEAR     35  25  67 E9        30.16F WCI  28
$$

IDZ016-017-211400-
SOUTHCENTRAL IDAHO


CITY           SKY/WX    TMP DP  RH WIND       PRES   REMARKS
BURLEY         CLEAR     31  25  78 CALM      30.20F
JEROME         CLEAR     41  20  43 E8        30.20S
TWIN FALLS     CLEAR     34  22  61 S7        30.19S WCI  28
$$

IDZ019>023-211400-
SOUTHEAST IDAHO


CITY           SKY/WX    TMP DP  RH WIND       PRES   REMARKS
IDAHO FALLS    CLEAR     29  19  66 N6        30.26S WCI  23
POCATELLO      CLEAR     30  18  60 W3        30.24S
REXBURG        CLEAR     30  24  78 CALM      30.27R
$$

IDZ006-010-011-018-031-032-211400-
CENTRAL IDAHO MOUNTAINS


CITY           SKY/WX    TMP DP  RH WIND       PRES   REMARKS
MCCALL         PTCLDY    28  21  75 CALM      30.16F
HAILEY         CLEAR     37  19  48 NW8       30.24S WCI  31
STANLEY          N/A     21  17  84 CALM      30.27S
SALMON         PTCLDY    28  19  69 CALM      30.26R
CHALLIS        PTCLDY    33  32  96 CALM      30.25S
$$

IDZ002-004-006-007-026-211400-
NORTHERN IDAHO


CITY           SKY/WX    TMP DP  RH WIND       PRES   REMARKS
LEWISTON       CLOUDY    46  30  53 E8        30.10F
LOWELL           N/A     35  32  88 NW7       30.25F WCI  29
COEUR D`ALENE  PTCLDY    36  28  75 NE9       30.15F WCI  29
MULLAN PASS    PTCLDY    36  20  52 S6        30.16F WCI  31
$$



USA.gov is the U.S. government's official web portal to all federal, state and local government web resources and services.